This demonstration page uses our WeatherBlox Daily Observations layout. Learn more.

36.17497, -115.13722

Hourly Observations for February 21, 2015

Temp ( °F °C ) Dew Point ( °F °C ) Humidity (%) Winds ( mph kmh ) Pressure ( in mb ) Visibility ( mi km ) Precip ( " mm )
12:53 am 00:53 Clear 57 13.9 14 -10 18 18 SW 3 6 29.88 1012 10 16.0934 0 0
1:53 am 01:53 Clear 57 13.9 12 -11.1 17 17 ENE 8 13 29.88 1012 10 16.0934 0 0
2:53 am 02:53 Clear 56 13.3 10 -12.2 16 16 Calm 29.86 1011 10 16.0934 0 0
3:53 am 03:53 Clear 53 11.7 13 -10.6 20 20 WNW 5 7 29.88 1012 10 16.0934 0 0
4:53 am 04:53 Clear 52 11.1 14 -10 22 22 Calm 29.9 1012 10 16.0934 0 0
5:53 am 05:53 Clear 49 9.4 16 -8.9 27 27 WSW 6 9 29.91 1013 10 16.0934 0 0
6:53 am 06:53 Sunny 51 10.6 14 -10 23 23 NW 9 15 29.93 1013 10 16.0934 0 0
7:53 am 07:53 Sunny 56 13.3 15 -9.4 20 20 WNW 7 11 29.95 1014 10 16.0934 0 0
8:53 am 08:53 Sunny 60 15.6 14 -10 16 16 NW 6 9 29.95 1014 10 16.0934 0 0
9:53 am 09:53 Sunny 61 16.1 13 -10.6 15 15 S 5 7 29.94 1014 10 16.0934 0 0
10:53 am 10:53 Sunny 63 17.2 10 -12.2 12 12 SSE 6 9 29.93 1013 10 16.0934 0 0
11:53 am 11:53 Sunny 66 18.9 10 -12.2 11 11 VRB 6 9 29.89 1012 10 16.0934 0 0
12:53 pm 12:53 Sunny 67 19.4 9 -12.8 10 10 Calm 29.84 1011 10 16.0934 0 0
1:53 pm 13:53 Sunny 68 20 8 -13.3 9 9 ESE 8 13 29.8 1009 10 16.0934 0 0
2:53 pm 14:53 Sunny 69 20.6 8 -13.3 9 9 E 8 13 29.77 1008 10 16.0934 0 0
3:53 pm 15:53 Sunny 69 20.6 9 -12.8 9 9 Calm 29.74 1007 10 16.0934 0 0
4:53 pm 16:53 Sunny 68 20 9 -12.8 10 10 E 6 9 29.73 1007 10 16.0934 0 0
5:53 pm 17:53 Clear 65 18.3 12 -11.1 13 13 E 7 11 29.74 1007 10 16.0934 0 0
6:53 pm 18:53 Clear 64 17.8 13 -10.6 13 13 ENE 3 6 29.73 1007 10 16.0934 0 0
7:53 pm 19:53 Clear 60 15.6 15 -9.4 17 17 NNW 6 9 29.72 1007 10 16.0934 0 0
8:53 pm 20:53 Clear 57 13.9 19 -7.2 23 23 WNW 6 9 29.72 1007 10 16.0934 0 0
9:53 pm 21:53 Clear 57 13.9 19 -7.2 23 23 WNW 6 9 29.72 1007 10 16.0934 0 0
10:53 pm 22:53 Clear 54 12.2 19 -7.2 25 25 NNW 5 7 29.72 1007 10 16.0934 0 0
11:53 pm 23:53 Clear 53 11.7 20 -6.7 27 27 W 3 6 29.72 1007 10 16.0934 0 0

Powered by AerisWeather